locationName,lineName,date,time,countIn,countOut
�n����ʂ�,3_1_1,2022/8/1,0:00,4,2
�n����ʂ�,3_1_1,2022/8/1,1:00,3,5
�n����ʂ�,3_1_1,2022/8/1,2:00,1,1
�n����ʂ�,3_1_1,2022/8/1,3:00,1,8
�n����ʂ�,3_1_1,2022/8/1,4:00,8,5
�n����ʂ�,3_1_1,2022/8/1,5:00,47,30
�n����ʂ�,3_1_1,2022/8/1,6:00,138,81
�n����ʂ�,3_1_1,2022/8/1,7:00,83,222
�n����ʂ�,3_1_1,2022/8/1,8:00,92,259
�n����ʂ�,3_1_1,2022/8/1,9:00,155,191
�n����ʂ�,3_1_1,2022/8/1,10:00,156,180
�n����ʂ�,3_1_1,2022/8/1,11:00,176,201
�n����ʂ�,3_1_1,2022/8/1,12:00,266,220
�n����ʂ�,3_1_1,2022/8/1,13:00,201,175
�n����ʂ�,3_1_1,2022/8/1,14:00,170,131
�n����ʂ�,3_1_1,2022/8/1,15:00,148,135
�n����ʂ�,3_1_1,2022/8/1,16:00,173,155
�n����ʂ�,3_1_1,2022/8/1,17:00,256,110
�n����ʂ�,3_1_1,2022/8/1,18:00,150,122
�n����ʂ�,3_1_1,2022/8/1,19:00,90,65
�n����ʂ�,3_1_1,2022/8/1,20:00,61,57
�n����ʂ�,3_1_1,2022/8/1,21:00,41,37
�n����ʂ�,3_1_1,2022/8/1,22:00,14,5
�n����ʂ�,3_1_1,2022/8/1,23:00,3,5
�n����ʂ�,3_1_1,2022/8/2,0:00,3,3
�n����ʂ�,3_1_1,2022/8/2,1:00,0,1
�n����ʂ�,3_1_1,2022/8/2,2:00,3,2
�n����ʂ�,3_1_1,2022/8/2,3:00,1,7
�n����ʂ�,3_1_1,2022/8/2,4:00,4,9
�n����ʂ�,3_1_1,2022/8/2,5:00,22,30
�n����ʂ�,3_1_1,2022/8/2,6:00,56,49
�n����ʂ�,3_1_1,2022/8/2,7:00,116,144
�n����ʂ�,3_1_1,2022/8/2,8:00,116,254
�n����ʂ�,3_1_1,2022/8/2,9:00,142,167
�n����ʂ�,3_1_1,2022/8/2,10:00,180,171
�n����ʂ�,3_1_1,2022/8/2,11:00,181,136
�n����ʂ�,3_1_1,2022/8/2,12:00,203,176
�n����ʂ�,3_1_1,2022/8/2,13:00,148,123
�n����ʂ�,3_1_1,2022/8/2,14:00,157,93
�n����ʂ�,3_1_1,2022/8/2,15:00,130,98
�n����ʂ�,3_1_1,2022/8/2,16:00,216,115
�n����ʂ�,3_1_1,2022/8/2,17:00,294,108
�n����ʂ�,3_1_1,2022/8/2,18:00,219,96
�n����ʂ�,3_1_1,2022/8/2,19:00,147,76
�n����ʂ�,3_1_1,2022/8/2,20:00,111,33
�n����ʂ�,3_1_1,2022/8/2,21:00,26,25
�n����ʂ�,3_1_1,2022/8/2,22:00,15,12
�n����ʂ�,3_1_1,2022/8/2,23:00,3,6
�n����ʂ�,3_1_1,2022/8/3,0:00,6,2
�n����ʂ�,3_1_1,2022/8/3,1:00,3,0
�n����ʂ�,3_1_1,2022/8/3,2:00,2,2
�n����ʂ�,3_1_1,2022/8/3,3:00,2,8
�n����ʂ�,3_1_1,2022/8/3,4:00,8,6
�n����ʂ�,3_1_1,2022/8/3,5:00,67,20
�n����ʂ�,3_1_1,2022/8/3,6:00,40,41
�n����ʂ�,3_1_1,2022/8/3,7:00,85,133
�n����ʂ�,3_1_1,2022/8/3,8:00,152,235
�n����ʂ�,3_1_1,2022/8/3,9:00,118,157
�n����ʂ�,3_1_1,2022/8/3,10:00,166,152
�n����ʂ�,3_1_1,2022/8/3,11:00,149,167
�n����ʂ�,3_1_1,2022/8/3,12:00,184,168
�n����ʂ�,3_1_1,2022/8/3,13:00,185,148
�n����ʂ�,3_1_1,2022/8/3,14:00,179,137
�n����ʂ�,3_1_1,2022/8/3,15:00,161,144
�n����ʂ�,3_1_1,2022/8/3,16:00,191,107
�n����ʂ�,3_1_1,2022/8/3,17:00,216,113
�n����ʂ�,3_1_1,2022/8/3,18:00,233,125
�n����ʂ�,3_1_1,2022/8/3,19:00,75,61
�n����ʂ�,3_1_1,2022/8/3,20:00,61,52
�n����ʂ�,3_1_1,2022/8/3,21:00,52,33
�n����ʂ�,3_1_1,2022/8/3,22:00,14,11
�n����ʂ�,3_1_1,2022/8/3,23:00,7,5
�n����ʂ�,3_1_1,2022/8/4,0:00,3,7
�n����ʂ�,3_1_1,2022/8/4,1:00,0,1
�n����ʂ�,3_1_1,2022/8/4,2:00,1,3
�n����ʂ�,3_1_1,2022/8/4,3:00,1,9
�n����ʂ�,3_1_1,2022/8/4,4:00,6,5
�n����ʂ�,3_1_1,2022/8/4,5:00,32,23
�n����ʂ�,3_1_1,2022/8/4,6:00,46,49
�n����ʂ�,3_1_1,2022/8/4,7:00,85,176
�n����ʂ�,3_1_1,2022/8/4,8:00,90,230
�n����ʂ�,3_1_1,2022/8/4,9:00,145,175
�n����ʂ�,3_1_1,2022/8/4,10:00,119,160
�n����ʂ�,3_1_1,2022/8/4,11:00,174,139
�n����ʂ�,3_1_1,2022/8/4,12:00,227,136
�n����ʂ�,3_1_1,2022/8/4,13:00,180,173
�n����ʂ�,3_1_1,2022/8/4,14:00,188,118
�n����ʂ�,3_1_1,2022/8/4,15:00,173,98
�n����ʂ�,3_1_1,2022/8/4,16:00,157,113
�n����ʂ�,3_1_1,2022/8/4,17:00,227,101
�n����ʂ�,3_1_1,2022/8/4,18:00,152,115
�n����ʂ�,3_1_1,2022/8/4,19:00,129,88
�n����ʂ�,3_1_1,2022/8/4,20:00,65,34
�n����ʂ�,3_1_1,2022/8/4,21:00,36,24
�n����ʂ�,3_1_1,2022/8/4,22:00,9,10
�n����ʂ�,3_1_1,2022/8/4,23:00,6,10
�n����ʂ�,3_1_1,2022/8/5,0:00,3,5
�n����ʂ�,3_1_1,2022/8/5,1:00,2,1
�n����ʂ�,3_1_1,2022/8/5,2:00,2,1
�n����ʂ�,3_1_1,2022/8/5,3:00,2,7
�n����ʂ�,3_1_1,2022/8/5,4:00,3,7
�n����ʂ�,3_1_1,2022/8/5,5:00,240,36
�n����ʂ�,3_1_1,2022/8/5,6:00,96,58
�n����ʂ�,3_1_1,2022/8/5,7:00,182,215
�n����ʂ�,3_1_1,2022/8/5,8:00,128,253
�n����ʂ�,3_1_1,2022/8/5,9:00,168,142
�n����ʂ�,3_1_1,2022/8/5,10:00,174,188
�n����ʂ�,3_1_1,2022/8/5,11:00,213,231
�n����ʂ�,3_1_1,2022/8/5,12:00,285,250
�n����ʂ�,3_1_1,2022/8/5,13:00,199,203
�n����ʂ�,3_1_1,2022/8/5,14:00,147,142
�n����ʂ�,3_1_1,2022/8/5,15:00,157,118
�n����ʂ�,3_1_1,2022/8/5,16:00,163,123
�n����ʂ�,3_1_1,2022/8/5,17:00,194,104
�n����ʂ�,3_1_1,2022/8/5,18:00,135,141
�n����ʂ�,3_1_1,2022/8/5,19:00,73,72
�n����ʂ�,3_1_1,2022/8/5,20:00,75,69
�n����ʂ�,3_1_1,2022/8/5,21:00,43,31
�n����ʂ�,3_1_1,2022/8/5,22:00,18,30
�n����ʂ�,3_1_1,2022/8/5,23:00,11,8
�n����ʂ�,3_1_1,2022/8/6,0:00,9,2
�n����ʂ�,3_1_1,2022/8/6,1:00,1,1
�n����ʂ�,3_1_1,2022/8/6,2:00,7,3
�n����ʂ�,3_1_1,2022/8/6,3:00,4,7
�n����ʂ�,3_1_1,2022/8/6,4:00,3,3
�n����ʂ�,3_1_1,2022/8/6,5:00,24,21
�n����ʂ�,3_1_1,2022/8/6,6:00,32,32
�n����ʂ�,3_1_1,2022/8/6,7:00,47,70
�n����ʂ�,3_1_1,2022/8/6,8:00,83,79
�n����ʂ�,3_1_1,2022/8/6,9:00,123,124
�n����ʂ�,3_1_1,2022/8/6,10:00,192,215
�n����ʂ�,3_1_1,2022/8/6,11:00,174,219
�n����ʂ�,3_1_1,2022/8/6,12:00,324,254
�n����ʂ�,3_1_1,2022/8/6,13:00,235,218
�n����ʂ�,3_1_1,2022/8/6,14:00,262,187
�n����ʂ�,3_1_1,2022/8/6,15:00,261,185
�n����ʂ�,3_1_1,2022/8/6,16:00,155,158
�n����ʂ�,3_1_1,2022/8/6,17:00,161,103
�n����ʂ�,3_1_1,2022/8/6,18:00,99,103
�n����ʂ�,3_1_1,2022/8/6,19:00,64,71
�n����ʂ�,3_1_1,2022/8/6,20:00,67,50
�n����ʂ�,3_1_1,2022/8/6,21:00,59,40
�n����ʂ�,3_1_1,2022/8/6,22:00,17,8
�n����ʂ�,3_1_1,2022/8/6,23:00,2,2
�n����ʂ�,3_1_1,2022/8/7,0:00,5,8
�n����ʂ�,3_1_1,2022/8/7,1:00,1,1
�n����ʂ�,3_1_1,2022/8/7,2:00,9,1
�n����ʂ�,3_1_1,2022/8/7,3:00,2,6
�n����ʂ�,3_1_1,2022/8/7,4:00,5,3
�n����ʂ�,3_1_1,2022/8/7,5:00,28,22
�n����ʂ�,3_1_1,2022/8/7,6:00,58,30
�n����ʂ�,3_1_1,2022/8/7,7:00,73,36
�n����ʂ�,3_1_1,2022/8/7,8:00,63,65
�n����ʂ�,3_1_1,2022/8/7,9:00,86,124
�n����ʂ�,3_1_1,2022/8/7,10:00,176,211
�n����ʂ�,3_1_1,2022/8/7,11:00,186,270
�n����ʂ�,3_1_1,2022/8/7,12:00,244,275
�n����ʂ�,3_1_1,2022/8/7,13:00,288,198
�n����ʂ�,3_1_1,2022/8/7,14:00,316,160
�n����ʂ�,3_1_1,2022/8/7,15:00,325,275
�n����ʂ�,3_1_1,2022/8/7,16:00,274,143
�n����ʂ�,3_1_1,2022/8/7,17:00,158,124
�n����ʂ�,3_1_1,2022/8/7,18:00,107,82
�n����ʂ�,3_1_1,2022/8/7,19:00,63,50
�n����ʂ�,3_1_1,2022/8/7,20:00,52,38
�n����ʂ�,3_1_1,2022/8/7,21:00,46,30
�n����ʂ�,3_1_1,2022/8/7,22:00,14,9
�n����ʂ�,3_1_1,2022/8/7,23:00,0,8
�n����ʂ�,3_1_1,2022/8/8,0:00,2,2
�n����ʂ�,3_1_1,2022/8/8,1:00,0,1
�n����ʂ�,3_1_1,2022/8/8,2:00,2,1
�n����ʂ�,3_1_1,2022/8/8,3:00,1,2
�n����ʂ�,3_1_1,2022/8/8,4:00,3,7
�n����ʂ�,3_1_1,2022/8/8,5:00,23,18
�n����ʂ�,3_1_1,2022/8/8,6:00,40,47
�n����ʂ�,3_1_1,2022/8/8,7:00,95,137
�n����ʂ�,3_1_1,2022/8/8,8:00,90,236
�n����ʂ�,3_1_1,2022/8/8,9:00,148,141
�n����ʂ�,3_1_1,2022/8/8,10:00,149,181
�n����ʂ�,3_1_1,2022/8/8,11:00,186,172
�n����ʂ�,3_1_1,2022/8/8,12:00,274,268
�n����ʂ�,3_1_1,2022/8/8,13:00,196,241
�n����ʂ�,3_1_1,2022/8/8,14:00,216,154
�n����ʂ�,3_1_1,2022/8/8,15:00,258,171
�n����ʂ�,3_1_1,2022/8/8,16:00,228,146
�n����ʂ�,3_1_1,2022/8/8,17:00,268,128
�n����ʂ�,3_1_1,2022/8/8,18:00,167,111
�n����ʂ�,3_1_1,2022/8/8,19:00,88,79
�n����ʂ�,3_1_1,2022/8/8,20:00,53,55
�n����ʂ�,3_1_1,2022/8/8,21:00,53,39
�n����ʂ�,3_1_1,2022/8/8,22:00,20,24
�n����ʂ�,3_1_1,2022/8/8,23:00,5,5
�n����ʂ�,3_1_1,2022/8/9,0:00,1,4
�n����ʂ�,3_1_1,2022/8/9,1:00,0,0
�n����ʂ�,3_1_1,2022/8/9,2:00,1,2
�n����ʂ�,3_1_1,2022/8/9,3:00,0,5
�n����ʂ�,3_1_1,2022/8/9,4:00,1,6
�n����ʂ�,3_1_1,2022/8/9,5:00,25,23
�n����ʂ�,3_1_1,2022/8/9,6:00,36,54
�n����ʂ�,3_1_1,2022/8/9,7:00,78,179
�n����ʂ�,3_1_1,2022/8/9,8:00,96,257
�n����ʂ�,3_1_1,2022/8/9,9:00,138,161
�n����ʂ�,3_1_1,2022/8/9,10:00,176,255
�n����ʂ�,3_1_1,2022/8/9,11:00,204,183
�n����ʂ�,3_1_1,2022/8/9,12:00,273,253
�n����ʂ�,3_1_1,2022/8/9,13:00,202,224
�n����ʂ�,3_1_1,2022/8/9,14:00,193,178
�n����ʂ�,3_1_1,2022/8/9,15:00,212,179
�n����ʂ�,3_1_1,2022/8/9,16:00,232,154
�n����ʂ�,3_1_1,2022/8/9,17:00,275,125
�n����ʂ�,3_1_1,2022/8/9,18:00,160,79
�n����ʂ�,3_1_1,2022/8/9,19:00,91,98
�n����ʂ�,3_1_1,2022/8/9,20:00,59,44
�n����ʂ�,3_1_1,2022/8/9,21:00,52,47
�n����ʂ�,3_1_1,2022/8/9,22:00,18,13
�n����ʂ�,3_1_1,2022/8/9,23:00,6,4
�n����ʂ�,3_1_1,2022/8/10,0:00,1,5
�n����ʂ�,3_1_1,2022/8/10,1:00,7,1
�n����ʂ�,3_1_1,2022/8/10,2:00,0,5
�n����ʂ�,3_1_1,2022/8/10,3:00,2,6
�n����ʂ�,3_1_1,2022/8/10,4:00,2,6
�n����ʂ�,3_1_1,2022/8/10,5:00,26,36
�n����ʂ�,3_1_1,2022/8/10,6:00,41,42
�n����ʂ�,3_1_1,2022/8/10,7:00,65,159
�n����ʂ�,3_1_1,2022/8/10,8:00,95,187
�n����ʂ�,3_1_1,2022/8/10,9:00,157,153
�n����ʂ�,3_1_1,2022/8/10,10:00,160,192
�n����ʂ�,3_1_1,2022/8/10,11:00,226,247
�n����ʂ�,3_1_1,2022/8/10,12:00,247,269
�n����ʂ�,3_1_1,2022/8/10,13:00,251,225
�n����ʂ�,3_1_1,2022/8/10,14:00,257,208
�n����ʂ�,3_1_1,2022/8/10,15:00,227,181
�n����ʂ�,3_1_1,2022/8/10,16:00,200,177
�n����ʂ�,3_1_1,2022/8/10,17:00,217,142
�n����ʂ�,3_1_1,2022/8/10,18:00,176,165
�n����ʂ�,3_1_1,2022/8/10,19:00,90,68
�n����ʂ�,3_1_1,2022/8/10,20:00,73,69
�n����ʂ�,3_1_1,2022/8/10,21:00,72,61
�n����ʂ�,3_1_1,2022/8/10,22:00,13,8
�n����ʂ�,3_1_1,2022/8/10,23:00,3,4
�n����ʂ�,3_1_1,2022/8/11,0:00,1,5
�n����ʂ�,3_1_1,2022/8/11,1:00,2,1
�n����ʂ�,3_1_1,2022/8/11,2:00,1,1
�n����ʂ�,3_1_1,2022/8/11,3:00,5,5
�n����ʂ�,3_1_1,2022/8/11,4:00,1,7
�n����ʂ�,3_1_1,2022/8/11,5:00,20,28
�n����ʂ�,3_1_1,2022/8/11,6:00,42,37
�n����ʂ�,3_1_1,2022/8/11,7:00,53,54
�n����ʂ�,3_1_1,2022/8/11,8:00,107,85
�n����ʂ�,3_1_1,2022/8/11,9:00,117,143
�n����ʂ�,3_1_1,2022/8/11,10:00,223,237
�n����ʂ�,3_1_1,2022/8/11,11:00,232,332
�n����ʂ�,3_1_1,2022/8/11,12:00,350,434
�n����ʂ�,3_1_1,2022/8/11,13:00,397,440
�n����ʂ�,3_1_1,2022/8/11,14:00,396,410
�n����ʂ�,3_1_1,2022/8/11,15:00,363,363
�n����ʂ�,3_1_1,2022/8/11,16:00,375,299
�n����ʂ�,3_1_1,2022/8/11,17:00,260,206
�n����ʂ�,3_1_1,2022/8/11,18:00,155,127
�n����ʂ�,3_1_1,2022/8/11,19:00,82,76
�n����ʂ�,3_1_1,2022/8/11,20:00,82,54
�n����ʂ�,3_1_1,2022/8/11,21:00,80,38
�n����ʂ�,3_1_1,2022/8/11,22:00,18,13
�n����ʂ�,3_1_1,2022/8/11,23:00,13,2
�n����ʂ�,3_1_1,2022/8/12,0:00,2,4
�n����ʂ�,3_1_1,2022/8/12,1:00,1,0
�n����ʂ�,3_1_1,2022/8/12,2:00,4,3
�n����ʂ�,3_1_1,2022/8/12,3:00,1,5
�n����ʂ�,3_1_1,2022/8/12,4:00,3,3
�n����ʂ�,3_1_1,2022/8/12,5:00,24,28
�n����ʂ�,3_1_1,2022/8/12,6:00,50,43
�n����ʂ�,3_1_1,2022/8/12,7:00,58,93
�n����ʂ�,3_1_1,2022/8/12,8:00,104,162
�n����ʂ�,3_1_1,2022/8/12,9:00,192,172
�n����ʂ�,3_1_1,2022/8/12,10:00,265,294
�n����ʂ�,3_1_1,2022/8/12,11:00,321,364
�n����ʂ�,3_1_1,2022/8/12,12:00,370,469
�n����ʂ�,3_1_1,2022/8/12,13:00,362,386
�n����ʂ�,3_1_1,2022/8/12,14:00,413,392
�n����ʂ�,3_1_1,2022/8/12,15:00,390,333
�n����ʂ�,3_1_1,2022/8/12,16:00,342,301
�n����ʂ�,3_1_1,2022/8/12,17:00,321,231
�n����ʂ�,3_1_1,2022/8/12,18:00,188,151
�n����ʂ�,3_1_1,2022/8/12,19:00,104,84
�n����ʂ�,3_1_1,2022/8/12,20:00,90,88
�n����ʂ�,3_1_1,2022/8/12,21:00,78,54
�n����ʂ�,3_1_1,2022/8/12,22:00,24,21
�n����ʂ�,3_1_1,2022/8/12,23:00,8,4
�n����ʂ�,3_1_1,2022/8/13,0:00,5,5
�n����ʂ�,3_1_1,2022/8/13,1:00,7,2
�n����ʂ�,3_1_1,2022/8/13,2:00,4,5
�n����ʂ�,3_1_1,2022/8/13,3:00,5,9
�n����ʂ�,3_1_1,2022/8/13,4:00,2,3
�n����ʂ�,3_1_1,2022/8/13,5:00,27,18
�n����ʂ�,3_1_1,2022/8/13,6:00,49,37
�n����ʂ�,3_1_1,2022/8/13,7:00,56,66
�n����ʂ�,3_1_1,2022/8/13,8:00,103,80
�n����ʂ�,3_1_1,2022/8/13,9:00,147,190
�n����ʂ�,3_1_1,2022/8/13,10:00,255,330
�n����ʂ�,3_1_1,2022/8/13,11:00,325,469
�n����ʂ�,3_1_1,2022/8/13,12:00,383,473
�n����ʂ�,3_1_1,2022/8/13,13:00,399,390
�n����ʂ�,3_1_1,2022/8/13,14:00,422,299
�n����ʂ�,3_1_1,2022/8/13,15:00,390,371
�n����ʂ�,3_1_1,2022/8/13,16:00,346,295
�n����ʂ�,3_1_1,2022/8/13,17:00,262,256
�n����ʂ�,3_1_1,2022/8/13,18:00,162,209
�n����ʂ�,3_1_1,2022/8/13,19:00,94,100
�n����ʂ�,3_1_1,2022/8/13,20:00,63,105
�n����ʂ�,3_1_1,2022/8/13,21:00,79,61
�n����ʂ�,3_1_1,2022/8/13,22:00,34,27
�n����ʂ�,3_1_1,2022/8/13,23:00,10,6
�n����ʂ�,3_1_1,2022/8/14,0:00,7,4
�n����ʂ�,3_1_1,2022/8/14,1:00,6,0
�n����ʂ�,3_1_1,2022/8/14,2:00,7,2
�n����ʂ�,3_1_1,2022/8/14,3:00,2,6
�n����ʂ�,3_1_1,2022/8/14,4:00,5,5
�n����ʂ�,3_1_1,2022/8/14,5:00,18,15
�n����ʂ�,3_1_1,2022/8/14,6:00,29,29
�n����ʂ�,3_1_1,2022/8/14,7:00,53,38
�n����ʂ�,3_1_1,2022/8/14,8:00,74,80
�n����ʂ�,3_1_1,2022/8/14,9:00,121,112
�n����ʂ�,3_1_1,2022/8/14,10:00,172,318
�n����ʂ�,3_1_1,2022/8/14,11:00,291,369
�n����ʂ�,3_1_1,2022/8/14,12:00,374,472
�n����ʂ�,3_1_1,2022/8/14,13:00,418,379
�n����ʂ�,3_1_1,2022/8/14,14:00,498,433
�n����ʂ�,3_1_1,2022/8/14,15:00,425,357
�n����ʂ�,3_1_1,2022/8/14,16:00,363,313
�n����ʂ�,3_1_1,2022/8/14,17:00,237,240
�n����ʂ�,3_1_1,2022/8/14,18:00,177,126
�n����ʂ�,3_1_1,2022/8/14,19:00,95,84
�n����ʂ�,3_1_1,2022/8/14,20:00,64,62
�n����ʂ�,3_1_1,2022/8/14,21:00,38,35
�n����ʂ�,3_1_1,2022/8/14,22:00,22,18
�n����ʂ�,3_1_1,2022/8/14,23:00,4,5
�n����ʂ�,3_1_1,2022/8/15,0:00,4,0
�n����ʂ�,3_1_1,2022/8/15,1:00,1,3
�n����ʂ�,3_1_1,2022/8/15,2:00,4,6
�n����ʂ�,3_1_1,2022/8/15,3:00,2,6
�n����ʂ�,3_1_1,2022/8/15,4:00,2,3
�n����ʂ�,3_1_1,2022/8/15,5:00,19,12
�n����ʂ�,3_1_1,2022/8/15,6:00,24,26
�n����ʂ�,3_1_1,2022/8/15,7:00,56,72
�n����ʂ�,3_1_1,2022/8/15,8:00,91,143
�n����ʂ�,3_1_1,2022/8/15,9:00,170,160
�n����ʂ�,3_1_1,2022/8/15,10:00,270,315
�n����ʂ�,3_1_1,2022/8/15,11:00,352,397
�n����ʂ�,3_1_1,2022/8/15,12:00,368,465
�n����ʂ�,3_1_1,2022/8/15,13:00,381,358
�n����ʂ�,3_1_1,2022/8/15,14:00,373,347
�n����ʂ�,3_1_1,2022/8/15,15:00,437,337
�n����ʂ�,3_1_1,2022/8/15,16:00,335,250
�n����ʂ�,3_1_1,2022/8/15,17:00,299,148
�n����ʂ�,3_1_1,2022/8/15,18:00,146,173
�n����ʂ�,3_1_1,2022/8/15,19:00,106,88
�n����ʂ�,3_1_1,2022/8/15,20:00,60,54
�n����ʂ�,3_1_1,2022/8/15,21:00,51,52
�n����ʂ�,3_1_1,2022/8/15,22:00,18,5
�n����ʂ�,3_1_1,2022/8/15,23:00,6,4
�n����ʂ�,3_1_1,2022/8/16,0:00,2,3
�n����ʂ�,3_1_1,2022/8/16,1:00,7,1
�n����ʂ�,3_1_1,2022/8/16,2:00,1,1
�n����ʂ�,3_1_1,2022/8/16,3:00,0,7
�n����ʂ�,3_1_1,2022/8/16,4:00,3,6
�n����ʂ�,3_1_1,2022/8/16,5:00,14,25
�n����ʂ�,3_1_1,2022/8/16,6:00,39,45
�n����ʂ�,3_1_1,2022/8/16,7:00,52,101
�n����ʂ�,3_1_1,2022/8/16,8:00,81,158
�n����ʂ�,3_1_1,2022/8/16,9:00,166,158
�n����ʂ�,3_1_1,2022/8/16,10:00,191,280
�n����ʂ�,3_1_1,2022/8/16,11:00,277,303
�n����ʂ�,3_1_1,2022/8/16,12:00,325,430
�n����ʂ�,3_1_1,2022/8/16,13:00,381,346
�n����ʂ�,3_1_1,2022/8/16,14:00,359,299
�n����ʂ�,3_1_1,2022/8/16,15:00,329,252
�n����ʂ�,3_1_1,2022/8/16,16:00,255,196
�n����ʂ�,3_1_1,2022/8/16,17:00,243,136
�n����ʂ�,3_1_1,2022/8/16,18:00,167,119
�n����ʂ�,3_1_1,2022/8/16,19:00,67,97
�n����ʂ�,3_1_1,2022/8/16,20:00,46,51
�n����ʂ�,3_1_1,2022/8/16,21:00,38,31
�n����ʂ�,3_1_1,2022/8/16,22:00,14,27
�n����ʂ�,3_1_1,2022/8/16,23:00,17,12
�n����ʂ�,3_1_1,2022/8/17,0:00,0,2
�n����ʂ�,3_1_1,2022/8/17,1:00,0,0
�n����ʂ�,3_1_1,2022/8/17,2:00,1,1
�n����ʂ�,3_1_1,2022/8/17,3:00,3,12
�n����ʂ�,3_1_1,2022/8/17,4:00,0,2
�n����ʂ�,3_1_1,2022/8/17,5:00,15,26
�n����ʂ�,3_1_1,2022/8/17,6:00,39,48
�n����ʂ�,3_1_1,2022/8/17,7:00,40,82
�n����ʂ�,3_1_1,2022/8/17,8:00,68,124
�n����ʂ�,3_1_1,2022/8/17,9:00,113,83
�n����ʂ�,3_1_1,2022/8/17,10:00,155,164
�n����ʂ�,3_1_1,2022/8/17,11:00,193,258
�n����ʂ�,3_1_1,2022/8/17,12:00,235,243
�n����ʂ�,3_1_1,2022/8/17,13:00,197,245
�n����ʂ�,3_1_1,2022/8/17,14:00,234,194
�n����ʂ�,3_1_1,2022/8/17,15:00,208,187
�n����ʂ�,3_1_1,2022/8/17,16:00,196,168
�n����ʂ�,3_1_1,2022/8/17,17:00,228,145
�n����ʂ�,3_1_1,2022/8/17,18:00,141,135
�n����ʂ�,3_1_1,2022/8/17,19:00,56,71
�n����ʂ�,3_1_1,2022/8/17,20:00,28,56
�n����ʂ�,3_1_1,2022/8/17,21:00,50,28
�n����ʂ�,3_1_1,2022/8/17,22:00,15,10
�n����ʂ�,3_1_1,2022/8/17,23:00,3,3
�n����ʂ�,3_1_1,2022/8/18,0:00,3,5
�n����ʂ�,3_1_1,2022/8/18,1:00,1,0
�n����ʂ�,3_1_1,2022/8/18,2:00,2,2
�n����ʂ�,3_1_1,2022/8/18,3:00,3,9
�n����ʂ�,3_1_1,2022/8/18,4:00,1,3
�n����ʂ�,3_1_1,2022/8/18,5:00,10,16
�n����ʂ�,3_1_1,2022/8/18,6:00,22,26
�n����ʂ�,3_1_1,2022/8/18,7:00,51,131
�n����ʂ�,3_1_1,2022/8/18,8:00,87,227
�n����ʂ�,3_1_1,2022/8/18,9:00,118,182
�n����ʂ�,3_1_1,2022/8/18,10:00,174,153
�n����ʂ�,3_1_1,2022/8/18,11:00,243,250
�n����ʂ�,3_1_1,2022/8/18,12:00,291,283
�n����ʂ�,3_1_1,2022/8/18,13:00,289,204
�n����ʂ�,3_1_1,2022/8/18,14:00,234,223
�n����ʂ�,3_1_1,2022/8/18,15:00,256,163
�n����ʂ�,3_1_1,2022/8/18,16:00,195,162
�n����ʂ�,3_1_1,2022/8/18,17:00,270,148
�n����ʂ�,3_1_1,2022/8/18,18:00,140,101
�n����ʂ�,3_1_1,2022/8/18,19:00,81,81
�n����ʂ�,3_1_1,2022/8/18,20:00,63,50
�n����ʂ�,3_1_1,2022/8/18,21:00,59,41
�n����ʂ�,3_1_1,2022/8/18,22:00,12,15
�n����ʂ�,3_1_1,2022/8/18,23:00,9,11
�n����ʂ�,3_1_1,2022/8/19,0:00,2,0
�n����ʂ�,3_1_1,2022/8/19,1:00,4,1
�n����ʂ�,3_1_1,2022/8/19,2:00,1,2
�n����ʂ�,3_1_1,2022/8/19,3:00,2,7
�n����ʂ�,3_1_1,2022/8/19,4:00,4,7
�n����ʂ�,3_1_1,2022/8/19,5:00,26,23
�n����ʂ�,3_1_1,2022/8/19,6:00,40,53
�n����ʂ�,3_1_1,2022/8/19,7:00,65,196
�n����ʂ�,3_1_1,2022/8/19,8:00,107,294
�n����ʂ�,3_1_1,2022/8/19,9:00,165,224
�n����ʂ�,3_1_1,2022/8/19,10:00,219,260
�n����ʂ�,3_1_1,2022/8/19,11:00,286,229
�n����ʂ�,3_1_1,2022/8/19,12:00,280,323
�n����ʂ�,3_1_1,2022/8/19,13:00,259,256
�n����ʂ�,3_1_1,2022/8/19,14:00,281,226
�n����ʂ�,3_1_1,2022/8/19,15:00,255,203
�n����ʂ�,3_1_1,2022/8/19,16:00,227,200
�n����ʂ�,3_1_1,2022/8/19,17:00,282,158
�n����ʂ�,3_1_1,2022/8/19,18:00,190,159
�n����ʂ�,3_1_1,2022/8/19,19:00,70,76
�n����ʂ�,3_1_1,2022/8/19,20:00,67,56
�n����ʂ�,3_1_1,2022/8/19,21:00,69,43
�n����ʂ�,3_1_1,2022/8/19,22:00,15,13
�n����ʂ�,3_1_1,2022/8/19,23:00,5,3
�n����ʂ�,3_1_1,2022/8/20,0:00,9,2
�n����ʂ�,3_1_1,2022/8/20,1:00,7,5
�n����ʂ�,3_1_1,2022/8/20,2:00,1,2
�n����ʂ�,3_1_1,2022/8/20,3:00,2,7
�n����ʂ�,3_1_1,2022/8/20,4:00,2,9
�n����ʂ�,3_1_1,2022/8/20,5:00,15,22
�n����ʂ�,3_1_1,2022/8/20,6:00,39,41
�n����ʂ�,3_1_1,2022/8/20,7:00,30,226
�n����ʂ�,3_1_1,2022/8/20,8:00,74,232
�n����ʂ�,3_1_1,2022/8/20,9:00,117,133
�n����ʂ�,3_1_1,2022/8/20,10:00,179,240
�n����ʂ�,3_1_1,2022/8/20,11:00,214,242
�n����ʂ�,3_1_1,2022/8/20,12:00,330,340
�n����ʂ�,3_1_1,2022/8/20,13:00,290,293
�n����ʂ�,3_1_1,2022/8/20,14:00,428,275
�n����ʂ�,3_1_1,2022/8/20,15:00,323,248
�n����ʂ�,3_1_1,2022/8/20,16:00,255,139
�n����ʂ�,3_1_1,2022/8/20,17:00,285,174
�n����ʂ�,3_1_1,2022/8/20,18:00,137,126
�n����ʂ�,3_1_1,2022/8/20,19:00,85,84
�n����ʂ�,3_1_1,2022/8/20,20:00,69,79
�n����ʂ�,3_1_1,2022/8/20,21:00,49,38
�n����ʂ�,3_1_1,2022/8/20,22:00,12,22
�n����ʂ�,3_1_1,2022/8/20,23:00,11,8
�n����ʂ�,3_1_1,2022/8/21,0:00,6,3
�n����ʂ�,3_1_1,2022/8/21,1:00,3,2
�n����ʂ�,3_1_1,2022/8/21,2:00,3,2
�n����ʂ�,3_1_1,2022/8/21,3:00,4,7
�n����ʂ�,3_1_1,2022/8/21,4:00,1,3
�n����ʂ�,3_1_1,2022/8/21,5:00,16,9
�n����ʂ�,3_1_1,2022/8/21,6:00,28,18
�n����ʂ�,3_1_1,2022/8/21,7:00,40,36
�n����ʂ�,3_1_1,2022/8/21,8:00,76,89
�n����ʂ�,3_1_1,2022/8/21,9:00,96,127
�n����ʂ�,3_1_1,2022/8/21,10:00,166,216
�n����ʂ�,3_1_1,2022/8/21,11:00,234,256
�n����ʂ�,3_1_1,2022/8/21,12:00,330,347
�n����ʂ�,3_1_1,2022/8/21,13:00,340,335
�n����ʂ�,3_1_1,2022/8/21,14:00,321,275
�n����ʂ�,3_1_1,2022/8/21,15:00,360,271
�n����ʂ�,3_1_1,2022/8/21,16:00,273,200
�n����ʂ�,3_1_1,2022/8/21,17:00,214,149
�n����ʂ�,3_1_1,2022/8/21,18:00,124,112
�n����ʂ�,3_1_1,2022/8/21,19:00,83,60
�n����ʂ�,3_1_1,2022/8/21,20:00,47,46
�n����ʂ�,3_1_1,2022/8/21,21:00,35,27
�n����ʂ�,3_1_1,2022/8/21,22:00,4,7
�n����ʂ�,3_1_1,2022/8/21,23:00,4,1
�n����ʂ�,3_1_1,2022/8/22,0:00,3,6
�n����ʂ�,3_1_1,2022/8/22,1:00,0,0
�n����ʂ�,3_1_1,2022/8/22,2:00,2,2
�n����ʂ�,3_1_1,2022/8/22,3:00,1,7
�n����ʂ�,3_1_1,2022/8/22,4:00,3,6
�n����ʂ�,3_1_1,2022/8/22,5:00,20,20
�n����ʂ�,3_1_1,2022/8/22,6:00,32,42
�n����ʂ�,3_1_1,2022/8/22,7:00,51,159
�n����ʂ�,3_1_1,2022/8/22,8:00,90,258
�n����ʂ�,3_1_1,2022/8/22,9:00,149,150
�n����ʂ�,3_1_1,2022/8/22,10:00,176,173
�n����ʂ�,3_1_1,2022/8/22,11:00,241,198
�n����ʂ�,3_1_1,2022/8/22,12:00,233,248
�n����ʂ�,3_1_1,2022/8/22,13:00,230,231
�n����ʂ�,3_1_1,2022/8/22,14:00,215,150
�n����ʂ�,3_1_1,2022/8/22,15:00,228,119
�n����ʂ�,3_1_1,2022/8/22,16:00,189,136
�n����ʂ�,3_1_1,2022/8/22,17:00,283,123
�n����ʂ�,3_1_1,2022/8/22,18:00,140,116
�n����ʂ�,3_1_1,2022/8/22,19:00,58,63
�n����ʂ�,3_1_1,2022/8/22,20:00,70,55
�n����ʂ�,3_1_1,2022/8/22,21:00,32,43
�n����ʂ�,3_1_1,2022/8/22,22:00,6,7
�n����ʂ�,3_1_1,2022/8/22,23:00,7,9
�n����ʂ�,3_1_1,2022/8/23,0:00,2,1
�n����ʂ�,3_1_1,2022/8/23,1:00,1,1
�n����ʂ�,3_1_1,2022/8/23,2:00,2,2
�n����ʂ�,3_1_1,2022/8/23,3:00,1,4
�n����ʂ�,3_1_1,2022/8/23,4:00,2,4
�n����ʂ�,3_1_1,2022/8/23,5:00,20,17
�n����ʂ�,3_1_1,2022/8/23,6:00,43,48
�n����ʂ�,3_1_1,2022/8/23,7:00,57,336
�n����ʂ�,3_1_1,2022/8/23,8:00,88,249
�n����ʂ�,3_1_1,2022/8/23,9:00,151,167
�n����ʂ�,3_1_1,2022/8/23,10:00,189,184
�n����ʂ�,3_1_1,2022/8/23,11:00,194,218
�n����ʂ�,3_1_1,2022/8/23,12:00,228,252
�n����ʂ�,3_1_1,2022/8/23,13:00,195,182
�n����ʂ�,3_1_1,2022/8/23,14:00,202,140
�n����ʂ�,3_1_1,2022/8/23,15:00,188,113
�n����ʂ�,3_1_1,2022/8/23,16:00,322,124
�n����ʂ�,3_1_1,2022/8/23,17:00,263,98
�n����ʂ�,3_1_1,2022/8/23,18:00,177,122
�n����ʂ�,3_1_1,2022/8/23,19:00,77,86
�n����ʂ�,3_1_1,2022/8/23,20:00,65,45
�n����ʂ�,3_1_1,2022/8/23,21:00,25,32
�n����ʂ�,3_1_1,2022/8/23,22:00,7,7
�n����ʂ�,3_1_1,2022/8/23,23:00,1,6
�n����ʂ�,3_1_1,2022/8/24,0:00,6,2
�n����ʂ�,3_1_1,2022/8/24,1:00,3,0
�n����ʂ�,3_1_1,2022/8/24,2:00,4,2
�n����ʂ�,3_1_1,2022/8/24,3:00,3,10
�n����ʂ�,3_1_1,2022/8/24,4:00,7,10
�n����ʂ�,3_1_1,2022/8/24,5:00,14,10
�n����ʂ�,3_1_1,2022/8/24,6:00,30,46
�n����ʂ�,3_1_1,2022/8/24,7:00,57,255
�n����ʂ�,3_1_1,2022/8/24,8:00,94,158
�n����ʂ�,3_1_1,2022/8/24,9:00,168,110
�n����ʂ�,3_1_1,2022/8/24,10:00,151,136
�n����ʂ�,3_1_1,2022/8/24,11:00,171,179
�n����ʂ�,3_1_1,2022/8/24,12:00,215,184
�n����ʂ�,3_1_1,2022/8/24,13:00,198,169
�n����ʂ�,3_1_1,2022/8/24,14:00,201,187
�n����ʂ�,3_1_1,2022/8/24,15:00,181,137
�n����ʂ�,3_1_1,2022/8/24,16:00,272,122
�n����ʂ�,3_1_1,2022/8/24,17:00,256,137
�n����ʂ�,3_1_1,2022/8/24,18:00,136,108
�n����ʂ�,3_1_1,2022/8/24,19:00,63,57
�n����ʂ�,3_1_1,2022/8/24,20:00,55,51
�n����ʂ�,3_1_1,2022/8/24,21:00,69,27
�n����ʂ�,3_1_1,2022/8/24,22:00,8,13
�n����ʂ�,3_1_1,2022/8/24,23:00,3,2
�n����ʂ�,3_1_1,2022/8/25,0:00,1,3
�n����ʂ�,3_1_1,2022/8/25,1:00,0,1
�n����ʂ�,3_1_1,2022/8/25,2:00,2,0
�n����ʂ�,3_1_1,2022/8/25,3:00,1,10
�n����ʂ�,3_1_1,2022/8/25,4:00,5,8
�n����ʂ�,3_1_1,2022/8/25,5:00,14,14
�n����ʂ�,3_1_1,2022/8/25,6:00,28,42
�n����ʂ�,3_1_1,2022/8/25,7:00,75,436
�n����ʂ�,3_1_1,2022/8/25,8:00,87,422
�n����ʂ�,3_1_1,2022/8/25,9:00,165,128
�n����ʂ�,3_1_1,2022/8/25,10:00,151,163
�n����ʂ�,3_1_1,2022/8/25,11:00,177,208
�n����ʂ�,3_1_1,2022/8/25,12:00,209,214
�n����ʂ�,3_1_1,2022/8/25,13:00,296,199
�n����ʂ�,3_1_1,2022/8/25,14:00,161,114
�n����ʂ�,3_1_1,2022/8/25,15:00,192,150
�n����ʂ�,3_1_1,2022/8/25,16:00,249,118
�n����ʂ�,3_1_1,2022/8/25,17:00,263,135
�n����ʂ�,3_1_1,2022/8/25,18:00,229,165
�n����ʂ�,3_1_1,2022/8/25,19:00,97,127
�n����ʂ�,3_1_1,2022/8/25,20:00,85,66
�n����ʂ�,3_1_1,2022/8/25,21:00,39,17
�n����ʂ�,3_1_1,2022/8/25,22:00,11,7
�n����ʂ�,3_1_1,2022/8/25,23:00,2,10
�n����ʂ�,3_1_1,2022/8/26,0:00,2,2
�n����ʂ�,3_1_1,2022/8/26,1:00,1,1
�n����ʂ�,3_1_1,2022/8/26,2:00,1,1
�n����ʂ�,3_1_1,2022/8/26,3:00,1,8
�n����ʂ�,3_1_1,2022/8/26,4:00,6,10
�n����ʂ�,3_1_1,2022/8/26,5:00,14,21
�n����ʂ�,3_1_1,2022/8/26,6:00,31,54
�n����ʂ�,3_1_1,2022/8/26,7:00,65,410
�n����ʂ�,3_1_1,2022/8/26,8:00,93,407
�n����ʂ�,3_1_1,2022/8/26,9:00,135,131
�n����ʂ�,3_1_1,2022/8/26,10:00,171,198
�n����ʂ�,3_1_1,2022/8/26,11:00,195,200
�n����ʂ�,3_1_1,2022/8/26,12:00,222,240
�n����ʂ�,3_1_1,2022/8/26,13:00,171,147
�n����ʂ�,3_1_1,2022/8/26,14:00,192,169
�n����ʂ�,3_1_1,2022/8/26,15:00,261,180
�n����ʂ�,3_1_1,2022/8/26,16:00,351,150
�n����ʂ�,3_1_1,2022/8/26,17:00,257,131
�n����ʂ�,3_1_1,2022/8/26,18:00,268,142
�n����ʂ�,3_1_1,2022/8/26,19:00,108,91
�n����ʂ�,3_1_1,2022/8/26,20:00,90,70
�n����ʂ�,3_1_1,2022/8/26,21:00,88,65
�n����ʂ�,3_1_1,2022/8/26,22:00,25,24
�n����ʂ�,3_1_1,2022/8/26,23:00,7,7
�n����ʂ�,3_1_1,2022/8/27,0:00,5,2
�n����ʂ�,3_1_1,2022/8/27,1:00,9,3
�n����ʂ�,3_1_1,2022/8/27,2:00,2,2
�n����ʂ�,3_1_1,2022/8/27,3:00,1,5
�n����ʂ�,3_1_1,2022/8/27,4:00,14,7
�n����ʂ�,3_1_1,2022/8/27,5:00,19,17
�n����ʂ�,3_1_1,2022/8/27,6:00,27,28
�n����ʂ�,3_1_1,2022/8/27,7:00,57,77
�n����ʂ�,3_1_1,2022/8/27,8:00,88,138
�n����ʂ�,3_1_1,2022/8/27,9:00,126,157
�n����ʂ�,3_1_1,2022/8/27,10:00,194,279
�n����ʂ�,3_1_1,2022/8/27,11:00,260,317